Regional Weather Roundup
Issued by NWS

Home | Current Version | Previous Version | Graphics & Text | Print | Product List | Glossary Off
Versions: 1 2 3 4 5 6 7 8 9 10 11 12 13 14 15 16 17 18 19 20 21 22 23 24 25 26 27 28 29 30 31 32 33 34 35 36 37 38 39 40 41 42 43 44 45 46 47 48 49 50

000
ASUS43 KDMX 270406
RWRIA

WEATHER ROUNDUP FOR IOWA
NATIONAL WEATHER SERVICE DES MOINES IA
1100 PM CDT SUN MAR 26 2017

NOTE: "FAIR" INDICATES FEW OR NO CLOUDS BELOW 12,000 FEET WITH NO
SIGNIFICANT WEATHER AND/OR OBSTRUCTIONS TO VISIBILITY.

* - THESE STATIONS ARE NOT NWS STATIONS...THUS NOT UNDER NWS
QUALITY CONTROL.  THEY ALSO DO NOT REPORT WEATHER SUCH
AS PRECIPITATION OR FOG.

IAZ001>003-012>014-020>022-031>034-043>046-270500-
   NORTHWEST IOWA

CITY           SKY/WX    TMP DP  RH WIND       PRES   REMARKS
CARROLL *      CLOUDY    43  43 100 NE7       29.95F
CHEROKEE *     CLOUDY    43  40  89 CALM      29.98R
LE MARS *      CLOUDY    45  41  87 CALM      29.99R
ORANGE CITY *  CLOUDY    43  39  87 CALM      29.97S
SHELDON *      CLOUDY    41  41 100 CALM      29.96S
SIOUX CITY     CLOUDY    46  41  82 NE5       29.97F
SPENCER        CLOUDY    42  39  89 NW5       29.97S
STORM LAKE *   CLOUDY    41  39  93 CALM      29.97R
$$

IAZ055>058-069>071-079>083-090>094-270500-
   SOUTHWEST IOWA

CITY           SKY/WX    TMP DP  RH WIND       PRES   REMARKS
ATLANTIC *     CLOUDY    45  43  93 N6        29.94F
AUDUBON *      CLOUDY    45  41  87 CALM      29.95F
CLARINDA *     CLOUDY    46  45  93 NE6       29.95F
COUNCIL BLFS * CLOUDY    46  46 100 CALM      29.93F
CRESTON *      CLOUDY    45  45 100 CALM      29.95F FOG
HARLAN  *      CLOUDY    45  45 100 CALM      29.98S
LAMONI         CLOUDY    47  43  86 N6        29.93F
RED OAK *      CLOUDY    46  43  87 NE6       29.94F
SHENANDOAH *   CLOUDY    46  45  93 CALM      29.94F
$$

IAZ047>049-059>061-072>074-084-270500-
   CENTRAL IOWA

CITY           SKY/WX    TMP DP  RH WIND       PRES   REMARKS
AMES           CLOUDY    44  44 100 NW7       29.95S
ANKENY *       CLOUDY    45  43  93 CALM      29.96F
BOONE *        CLOUDY    43  43 100 N6        29.94F FOG
CHARITON *     CLOUDY    45  45 100 NW5       29.93F FOG
DES MOINES     CLOUDY    46  44  93 N3        29.94F
GRINNELL*      CLOUDY    45  43  94 W5        29.95S
KNOXVILLE *    CLOUDY    45  45 100 N5        29.93F FOG
MARSHALLTOWN   CLOUDY    45  43  93 N3        29.94S
NEWTON *       CLOUDY    45  43  93 W5        29.94S FOG
PELLA *        CLOUDY    45  44  96 NW3       29.95F
PERRY *        CLOUDY    45  43  95 CALM      29.96F FOG
$$

IAZ004>006-015-016-023>025-035-036-270500-
   NORTH CENTRAL IOWA

CITY           SKY/WX    TMP DP  RH WIND       PRES   REMARKS
ALGONA *       CLOUDY    41  41 100 NW5       29.96S
CLARION *      CLOUDY    41  41 100 NW7       29.96S
ESTHERVILLE    CLOUDY    39  39 100 NW6       29.96F WCI  35
FORT DODGE *   CLOUDY    43  37  81 NW5       29.97S
MASON CITY     CLOUDY    41  40  96 NW6       29.96R FOG
FOREST CITY *  CLOUDY    39  39 100 NW6       29.94F WCI  35
WEBSTER CITY * CLOUDY    43  41  93 NW6       29.94S
IOWA FALLS *   CLOUDY    44  42  94 CALM      29.95S
$$

IAZ007>011-017>019-026>030-037>042-050>054-066-270500-
   NORTHEAST IOWA

CITY           SKY/WX    TMP DP  RH WIND       PRES   REMARKS
CEDAR RAPIDS   CLOUDY    45  45 100 W5        29.92S
CHARLES CITY * CLOUDY    41  41 100 CALM      29.94S
CLINTON *      CLOUDY    48  46  93 W7        29.92S
DECORAH *      CLOUDY    41  39  93 NW5       29.91S FOG
DUBUQUE        CLOUDY    44  43  96 N6        29.90F FOG
MONTICELLO *   CLOUDY    45  45 100 W3        29.91S
OELWEIN *      CLOUDY    43  43 100 NW7       29.93S
WATERLOO       CLOUDY    43  41  93 NW6       29.93S
$$

IAZ064-065-067-068-078-270500-
   EAST CENTRAL IOWA

CITY           SKY/WX    TMP DP  RH WIND       PRES   REMARKS
DAVENPORT      CLOUDY    47  46  97 W9        29.92F
IOWA CITY      CLOUDY    48  45  89 W5        29.95S
MUSCATINE *    CLOUDY    48  46  93 W7        29.95S
QUAD CITIES    CLOUDY    49  45  86 W9        29.92S
$$

IAZ062-063-075>077-085>089-095>099-270500-
   SOUTHEAST IOWA

CITY           SKY/WX    TMP DP  RH WIND       PRES   REMARKS
BURLINGTON     CLOUDY    48  47  96 CALM      29.94F FOG
FAIRFIELD *    CLOUDY    46  46 100 W5        29.93F FOG
FORT MADISON * CLOUDY    48  46  93 CALM      29.95F FOG
KEOKUK *       CLOUDY    48  46  93 SW5       29.93F
OSKALOOSA *    MOCLDY    43  43  99 CALM      29.94F FOG
OTTUMWA        CLOUDY    46  46 100 NW5       29.93F FOG
WASHINGTON *   CLOUDY    46  46 100 W7        29.95F FOG
$$

ABBREVIATIONS USED IN REMARKS
   TC - TEMPERATURES IN CELSIUS
  WCI - WIND CHILL INDEX
   HX - HEAT INDEX
  VSB - VISIBILITY
$$




USA.gov is the U.S. government's official web portal to all federal, state and local government web resources and services.